Погода в Богослове

Россия / Владимирская область     56°09′27″N   40°19′18″E
темп.,
°C
ветер,
м/с
пор.,
м/с
влажн.,
%
обл.,
%
осадки,
мм/ч
давл.,
гПа
погр.,
м
16 мая, пн
пн1600:00+7зсз378683 0.0 1002102
03:00+6зсз4109495 0.0 1002227
06:00+7зсз599590 0.1 1002369
09:00+9зсз688278 0.1 1003694
12:00+13зсз786075 0.0 10021708
15:00+11сз696994 0.2 10031302
18:00+9сз61078100 0.2 10031069
21:00+7зсз41086100 0.2 1003608
17 мая, вт
вт1700:00+6з61091100 0.2 1001675
03:00+6з61197100 2.9 1000523
06:00+7ссз5996100 1.9 999598
09:00+9ссз5791100 1.9 1000631
12:00+10с5889100 0.6 1001742
15:00+11с6885100 3.8 1001824
18:00+10ссв61089100 1.0 1002795
21:00+7с5994100 1.1 1004468
18 мая, ср
ср1800:00+7с61294100 0.2 1004567
03:00+6с6119399 0.9 1005554
06:00+5с61094100 0.4 1007433
09:00+7с687879 0.4 1008730
12:00+11с685483 0.0 10091841
15:00+10ссз6860100 0.1 10101133
18:00+9ссз6875100 0.3 1011982
21:00+5сз5108662 0.3 1012545
19 мая, чт
чт1900:00+2сз399650 0.0 1013236
03:00+3зсз3890100 0.0 1012259
06:00+4з2387100 0.1 1011205
09:00+2св1299100 5.6 1011301
12:00+6ссз468680 1.1 1012727
15:00+8ссз697068 2.2 10121633
18:00+8с6107212 0.5 10141092
21:00+3сз33805 0.5 101526
20 мая, пт
пт2000:00+2сз37845 0.0 1016111
03:000сз38885 0.0 1017139
06:00+3сз498383 0.0 1017289
09:00+7сз5766100 0.0 10171167
12:00+7ссз5760100 0.1 10161503
15:00+8ссз475781 0.1 10151403
18:00+9ссз366164 0.1 10141511
21:00+3ссз33754 0.1 101432